When you browse on this site, cookies collect data to enhance your experience and personalize the content and advertising you see.
Visit our Privacy Policy to learn more. By continuing to use the site, you agree to this use of cookies and data.
  • In United Kingdom
  • List of Countries
  • For 7 days
  • Water Temperature
  • Weather Map
  • Weather Widgets
  • user-avatar
    Login

    Hourly Weather Malanje

    Today, 6 June, Saturday

    Time Temperature Precipitation Wind Pressure Humidity
    00:00 +20°C° 0 mm 1 mps 666 mmHg 63%
    01:00 +19°C° 0 mm 1 mps 666 mmHg 66%
    02:00 +19°C° 0 mm 1 mps 666 mmHg 66%
    03:00 +19°C° 0 mm 1 mps 666 mmHg 67%
    04:00 +18°C° 0 mm 1 mps 666 mmHg 67%
    05:00 +18°C° 0 mm 1 mps 666 mmHg 65%
    06:00 +18°C° 0 mm 1 mps 667 mmHg 62%
    07:00 +18°C° 0 mm 2 mps 667 mmHg 57%
    08:00 +21°C° 0 mm 2 mps 668 mmHg 49%
    09:00 +25°C° 0 mm 3 mps 669 mmHg 40%
    10:00 +27°C° 0 mm 4 mps 669 mmHg 31%
    11:00 +29°C° 0 mm 3 mps 669 mmHg 29%
    12:00 +30°C° 0 mm 3 mps 668 mmHg 26%
    13:00 +33°C° 0 mm 3 mps 668 mmHg 24%
    14:00 +33°C° 0 mm 3 mps 667 mmHg 24%
    15:00 +31°C° 0 mm 2 mps 667 mmHg 25%
    16:00 +31°C° 0 mm 2 mps 666 mmHg 25%
    17:00 +28°C° 0 mm 2 mps 666 mmHg 30%
    18:00 +26°C° 0 mm 1 mps 666 mmHg 35%
    19:00 +23°C° 0 mm 1 mps 666 mmHg 40%
    20:00 +22°C° 0 mm 1 mps 666 mmHg 41%
    21:00 +21°C° 0 mm 1 mps 666 mmHg 42%
    22:00 +21°C° 0 mm 1 mps 666 mmHg 43%
    23:00 +20°C° 0 mm 1 mps 666 mmHg 44%

    Tomorrow, 7 June, Sunday

    Time Temperature Precipitation Wind Pressure Humidity
    00:00 +19°C° 0 mm 1 mps 665 mmHg 45%
    01:00 +19°C° 0 mm 1 mps 665 mmHg 46%
    02:00 +18°C° 0 mm 1 mps 665 mmHg 47%
    03:00 +16°C° 0 mm 1 mps 665 mmHg 49%
    04:00 +15°C° 0 mm 1 mps 665 mmHg 50%
    05:00 +15°C° 0 mm 1 mps 665 mmHg 50%
    06:00 +15°C° 0 mm 2 mps 666 mmHg 50%
    07:00 +15°C° 0 mm 2 mps 666 mmHg 49%
    08:00 +19°C° 0 mm 2 mps 667 mmHg 43%
    09:00 +22°C° 0 mm 3 mps 668 mmHg 37%
    10:00 +26°C° 0 mm 3 mps 668 mmHg 30%
    11:00 +28°C° 0 mm 3 mps 668 mmHg 27%
    12:00 +30°C° 0 mm 3 mps 667 mmHg 24%
    13:00 +32°C° 0 mm 2 mps 667 mmHg 21%
    14:00 +31°C° 0 mm 2 mps 667 mmHg 22%
    15:00 +31°C° 0 mm 2 mps 666 mmHg 22%
    16:00 +31°C° 0 mm 2 mps 666 mmHg 23%
    17:00 +28°C° 0 mm 1 mps 666 mmHg 28%
    18:00 +25°C° 0 mm 1 mps 665 mmHg 33%
    19:00 +22°C° 0 mm 1 mps 665 mmHg 38%
    20:00 +21°C° 0 mm 1 mps 665 mmHg 39%
    21:00 +19°C° 0 mm 0 mps 665 mmHg 40%
    22:00 +18°C° 0 mm 0 mps 665 mmHg 41%
    23:00 +19°C° 0 mm 1 mps 665 mmHg 43%

    Day after tomorrow, 8 June, Monday

    Time Temperature Precipitation Wind Pressure Humidity
    00:00 +19°C° 0 mm 1 mps 665 mmHg 44%
    01:00 +18°C° 0 mm 1 mps 665 mmHg 45%
    02:00 +18°C° 0 mm 1 mps 664 mmHg 47%
    03:00 +16°C° 0 mm 1 mps 664 mmHg 49%
    04:00 +15°C° 0 mm 1 mps 664 mmHg 51%
    05:00 +15°C° 0 mm 1 mps 664 mmHg 51%
    06:00 +15°C° 0 mm 2 mps 665 mmHg 51%
    07:00 +15°C° 0 mm 2 mps 665 mmHg 52%
    08:00 +19°C° 0 mm 2 mps 666 mmHg 45%
    09:00 +23°C° 0 mm 2 mps 667 mmHg 39%
    10:00 +26°C° 0 mm 2 mps 667 mmHg 33%
    11:00 +28°C° 0 mm 2 mps 667 mmHg 30%
    12:00 +30°C° 0 mm 2 mps 667 mmHg 26%
    13:00 +32°C° 0 mm 2 mps 667 mmHg 22%
    14:00 +32°C° 0 mm 1 mps 666 mmHg 23%
    15:00 +32°C° 0 mm 1 mps 666 mmHg 23%
    16:00 +31°C° 0 mm 1 mps 665 mmHg 23%
    17:00 +28°C° 0 mm 1 mps 665 mmHg 28%
    18:00 +23°C° 0 mm 0 mps 665 mmHg 33%
    19:00 +20°C° 0 mm 0 mps 664 mmHg 38%
    20:00 +22°C° 0 mm 1 mps 665 mmHg 40%
    21:00 +21°C° 0 mm 1 mps 665 mmHg 43%
    22:00 +19°C° 0 mm 2 mps 665 mmHg 45%
    23:00 +19°C° 0 mm 2 mps 665 mmHg 56%

    9 June, Tuesday

    Time Temperature Precipitation Wind Pressure Humidity
    00:00 +18°C° 0 mm 2 mps 665 mmHg 67%
    01:00 +17°C° 0 mm 2 mps 665 mmHg 78%
    02:00 +16°C° 0 mm 2 mps 665 mmHg 85%
    03:00 +16°C° 0 mm 2 mps 664 mmHg 91%
    04:00 +16°C° 0 mm 2 mps 664 mmHg 98%
    05:00 +16°C° 0 mm 2 mps 665 mmHg 95%
    06:00 +18°C° 0 mm 1 mps 665 mmHg 93%
    07:00 +18°C° 0 mm 1 mps 666 mmHg 91%
    08:00 +21°C° 0 mm 1 mps 666 mmHg 75%
    09:00 +24°C° 0 mm 2 mps 667 mmHg 59%
    10:00 +26°C° 0 mm 2 mps 668 mmHg 43%
    11:00 +28°C° 0 mm 2 mps 667 mmHg 37%
    12:00 +30°C° 0 mm 2 mps 667 mmHg 30%
    13:00 +32°C° 0 mm 1 mps 667 mmHg 23%
    14:00 +32°C° 0 mm 1 mps 666 mmHg 23%
    15:00 +31°C° 0 mm 1 mps 666 mmHg 23%
    16:00 +31°C° 0 mm 1 mps 665 mmHg 23%
    17:00 +26°C° 0 mm 0 mps 665 mmHg 27%
    18:00 +23°C° 0 mm 0 mps 665 mmHg 32%
    19:00 +21°C° 0 mm 0 mps 665 mmHg 36%
    20:00 +21°C° 0 mm 1 mps 665 mmHg 44%
    21:00 +20°C° 0 mm 1 mps 665 mmHg 52%
    22:00 +19°C° 0 mm 1 mps 665 mmHg 59%
    23:00 +19°C° 0 mm 1 mps 665 mmHg 67%

    10 June, Wednesday

    Time Temperature Precipitation Wind Pressure Humidity
    00:00 +18°C° 0 mm 1 mps 665 mmHg 76%
    01:00 +18°C° 0 mm 1 mps 665 mmHg 84%
    02:00 +16°C° 0 mm 1 mps 665 mmHg 87%
    03:00 +16°C° 0 mm 1 mps 664 mmHg 90%
    04:00 +15°C° 0 mm 1 mps 664 mmHg 93%
    05:00 +15°C° 0 mm 1 mps 665 mmHg 90%
    06:00 +16°C° 0 mm 1 mps 665 mmHg 86%
    07:00 +16°C° 0 mm 1 mps 666 mmHg 83%
    08:00 +20°C° 0 mm 2 mps 666 mmHg 66%
    09:00 +24°C° 0 mm 2 mps 667 mmHg 49%
    10:00 +27°C° 0 mm 2 mps 668 mmHg 32%
    11:00 +29°C° 0 mm 2 mps 668 mmHg 29%
    12:00 +31°C° 0 mm 2 mps 668 mmHg 25%
    13:00 +33°C° 0 mm 1 mps 667 mmHg 22%
    14:00 +33°C° 0 mm 1 mps 667 mmHg 22%
    15:00 +32°C° 0 mm 1 mps 666 mmHg 22%
    16:00 +32°C° 0 mm 1 mps 666 mmHg 23%
    17:00 +29°C° 0 mm 1 mps 665 mmHg 28%
    18:00 +26°C° 0 mm 1 mps 665 mmHg 33%
    19:00 +21°C° 0 mm 0 mps 665 mmHg 38%
    20:00 +22°C° 0 mm 1 mps 665 mmHg 47%
    21:00 +20°C° 0 mm 1 mps 665 mmHg 56%
    22:00 +18°C° 0 mm 2 mps 665 mmHg 65%
    23:00 +18°C° 0 mm 2 mps 665 mmHg 73%

    11 June, Thursday

    Time Temperature Precipitation Wind Pressure Humidity
    00:00 +17°C° 0 mm 2 mps 665 mmHg 81%
    01:00 +16°C° 0 mm 1 mps 664 mmHg 89%
    02:00 +16°C° 0 mm 1 mps 664 mmHg 90%
    03:00 +15°C° 0 mm 1 mps 664 mmHg 92%
    04:00 +15°C° 0 mm 1 mps 664 mmHg 94%
    05:00 +15°C° 0 mm 1 mps 664 mmHg 91%
    06:00 +16°C° 0 mm 1 mps 665 mmHg 89%
    07:00 +15°C° 0 mm 0 mps 665 mmHg 86%
    08:00 +21°C° 0 mm 1 mps 666 mmHg 71%
    09:00 +24°C° 0 mm 1 mps 667 mmHg 56%
    10:00 +28°C° 0 mm 1 mps 668 mmHg 41%
    11:00 +30°C° 0 mm 1 mps 668 mmHg 36%
    12:00 +31°C° 0 mm 0 mps 668 mmHg 30%
    13:00 +33°C° 0 mm 0 mps 668 mmHg 25%
    14:00 +32°C° 0 mm 0 mps 667 mmHg 25%
    15:00 +31°C° 0 mm 0 mps 666 mmHg 26%
    16:00 +29°C° 0 mm 0 mps 665 mmHg 27%
    17:00 +29°C° 0 mm 1 mps 665 mmHg 32%
    18:00 +26°C° 0 mm 1 mps 665 mmHg 37%
    19:00 +23°C° 0 mm 1 mps 665 mmHg 42%
    20:00 +22°C° 0 mm 1 mps 665 mmHg 52%
    21:00 +21°C° 0 mm 1 mps 665 mmHg 62%
    22:00 +18°C° 0 mm 2 mps 666 mmHg 72%
    23:00 +18°C° 0 mm 2 mps 665 mmHg 76%
    Show more